Regional Weather Roundup
Issued by NWS

Home | Current Version | Previous Version | Text Only | Print | Product List | Glossary On
Versions: 1 2 3 4 5 6 7 8 9 10 11 12 13 14 15 16 17 18 19 20 21 22 23 24 25 26 27 28 29 30 31 32 33 34 35 36 37 38 39 40 41 42 43 44 45 46 47 48 49 50
000
ASUS43 KOAX 061010
RWRNE

WEATHER ROUNDUP FOR NEBRASKA
NATIONAL WEATHER SERVICE OMAHA NE
400 AM CST TUE DEC 06 2016

NOTES: SATELLITE DATA IS BEING USED TO AUGMENT CLOUD COVER ABOVE
       12000 FEET.
       "FAIR" INDICATES FEW OR NO CLOUDS BELOW 12,000 FEET WITH NO
       SIGNIFICANT WEATHER AND/OR OBSTRUCTIONS TO VISIBILITY.

  * THESE STATIONS DO NOT REPORT WEATHER SUCH AS RAIN...SNOW OR FOG.

NEZ001>004-019>022-054>056-061100-
NEBRASKA PANHANDLE

CITY           SKY/WX    TMP DP  RH WIND       PRES   REMARKS
SCOTTSBLUFF    CLEAR      6   1  80 NW5       29.98F WCI  -3
ALLIANCE       CLEAR      9   2  73 W9        29.95S WCI  -4
CHADRON        CLEAR     12   3  67 W8        30.00F WCI   0
KIMBALL        CLEAR      6   3  88 W6        29.95F WCI  -5
SIDNEY         CLEAR      7   1  76 W7        29.97F WCI  -5
$$

NEZ057>060-069>072-079>082-061100-
SOUTHWEST NEBRASKA

CITY           SKY/WX    TMP DP  RH WIND       PRES   REMARKS
NORTH PLATTE   CLEAR     18  10  71 W9        30.00R WCI   7
IMPERIAL       CLEAR     18   6  59 NW16      30.00F WCI   3
LEXINGTON      PTCLDY    23  14  68 NW13      29.99S WCI  12
MCCOOK         PTCLDY    21  11  65 W13       30.02S WCI   9
OGALLALA       CLEAR     19   8  60 NW16      29.99S WCI   5
$$

NEZ005>010-023>029-035>040-094-061100-
NORTH CENTRAL NEBRASKA

CITY           SKY/WX    TMP DP  RH WIND       PRES   REMARKS
VALENTINE      CLEAR     15   5  64 W14       29.96R WCI   0
AINSWORTH      CLEAR     18   8  63 W15G21    29.94S WCI   4
BROKEN BOW     CLEAR     19  13  77 NW9       29.97R WCI   8
O`NEILL        CLEAR     19  10  68 W13G20    29.93F WCI   6
ORD            CLEAR     19   9  65 NW16      29.97R WCI   4
THEDFORD       CLEAR     14  11  86 W7        29.96S WCI   4
$$

NEZ041-046>049-061>064-073>077-083>087-061100-
SOUTH CENTRAL NEBRASKA

CITY           SKY/WX    TMP DP  RH WIND       PRES   REMARKS
GRAND ISLAND   CLEAR     22  13  68 NW13      29.98S WCI  10
AURORA         CLEAR     24  12  62 NW16      29.98R WCI  10
HASTINGS       CLEAR     23  13  65 NW10      29.99R WCI  12
HEBRON         CLOUDY    28  16  59 N9        30.00R WCI  19
HOLDREGE       CLEAR     20  14  77 W6        29.98S WCI  12
KEARNEY *      PTCLDY    21  10  63 NW7       29.98S WCI  13
YORK           CLEAR     23  14  68 NW15      29.98R WCI  10
$$

NEZ011>018-030>034-042>045-061100-
NORTHEAST NEBRASKA

CITY           SKY/WX    TMP DP  RH WIND       PRES   REMARKS
NORFOLK        PTCLDY    20   8  60 NW15      29.93S WCI   6
ALBION         PTCLDY    21  10  63 NW16G23   29.94F WCI   7
BLAIR          CLOUDY    28  18  65 NW14G20   29.92R WCI  17
FREMONT        CLOUDY    27  13  56 NW24G31   29.96R WCI  12
TEKAMAH        CLOUDY    27  18  69 NW13      29.95R WCI  16
WAYNE          PTCLDY    21  12  69 NW16G22   29.94R WCI   7
$$

NEZ050>053-065>068-078-088>093-061100-
SOUTHEAST NEBRASKA

CITY           SKY/WX    TMP DP  RH WIND       PRES   REMARKS
LINCOLN        CLOUDY    30  15  53 NW24      29.96S WCI  16
OMAHA EPPLEY   CLOUDY    29  18  63 NW13      29.93F WCI  19
BEATRICE       MOCLDY    30  18  60 N20       29.95S WCI  18
FALLS CITY     CLOUDY    32  23  69 N13G23    29.92R WCI  22
NEBRASKA CITY  CLOUDY    31  17  57 NW18      29.93R WCI  19
PLATTSMOUTH    CLOUDY    30  17  58 NW17      29.92S WCI  18
$$

NEZ044-045-051>053-067-061100-
OMAHA AREA

CITY           SKY/WX    TMP DP  RH WIND       PRES   REMARKS
OMAHA EPPLEY   CLOUDY    29  18  63 NW13      29.93F WCI  19
BLAIR          CLOUDY    28  18  65 NW14G20   29.92R WCI  17
FREMONT        CLOUDY    27  13  56 NW24G31   29.96R WCI  12
MILLARD        CLOUDY    31  19  60 NW13G21   29.94R WCI  21
OFFUTT AFB     CLOUDY    29  20  68 NW14G21   29.93S WCI  19
PLATTSMOUTH    CLOUDY    30  17  58 NW17      29.92S WCI  18
WAHOO          CLOUDY    29  19  66 NW15G21   29.95S WCI  17
$$



USA.gov is the U.S. government's official web portal to all federal, state and local government web resources and services.